• In Belarus
  • List of Countries
  • For 7 days
  • Water Temperature
  • Satellite Maps
  • Weather Map
  • Weather Widgets
  • user-avatar
    Login

    Hourly Weather Falaba

    Today, 19 January, Friday

    Time Temperature Precipitation Wind Pressure Humidity
    00:00 +21°C° 0 mm 0 mps 741 mmHg 46%
    01:00 +21°C° 0 mm 0 mps 741 mmHg 53%
    02:00 +20°C° 0 mm 0 mps 741 mmHg 59%
    03:00 +20°C° 0 mm 0 mps 741 mmHg 63%
    04:00 +19°C° 0 mm 0 mps 740 mmHg 67%
    05:00 +19°C° 0 mm 0 mps 741 mmHg 88%
    06:00 +21°C° 0 mm 0 mps 741 mmHg 80%
    07:00 +23°C° 0 mm 0 mps 741 mmHg 73%
    08:00 +25°C° 0 mm 0 mps 742 mmHg 65%
    09:00 +29°C° 0 mm 0 mps 742 mmHg 52%
    10:00 +34°C° 0 mm 1 mps 741 mmHg 38%
    11:00 +37°C° 0 mm 1 mps 741 mmHg 25%
    12:00 +39°C° 0 mm 1 mps 741 mmHg 22%
    13:00 +40°C° 0 mm 1 mps 740 mmHg 19%
    14:00 +41°C° 0 mm 1 mps 739 mmHg 16%
    15:00 +39°C° 0 mm 1 mps 739 mmHg 18%
    16:00 +36°C° 0 mm 1 mps 739 mmHg 20%
    17:00 +33°C° 0 mm 0 mps 739 mmHg 22%
    18:00 +30°C° 0 mm 0 mps 739 mmHg 26%
    19:00 +30°C° 0 mm 1 mps 739 mmHg 30%
    20:00 +27°C° 0 mm 1 mps 740 mmHg 34%
    21:00 +26°C° 0 mm 1 mps 740 mmHg 44%
    22:00 +25°C° 0 mm 1 mps 740 mmHg 55%
    23:00 +24°C° 0 mm 1 mps 741 mmHg 65%

    Tomorrow, 20 January, Saturday

    Time Temperature Precipitation Wind Pressure Humidity
    00:00 +21°C° 0 mm 0 mps 741 mmHg 74%
    01:00 +21°C° 0 mm 0 mps 740 mmHg 83%
    02:00 +20°C° 0 mm 0 mps 740 mmHg 91%
    03:00 +20°C° 0 mm 0 mps 740 mmHg 93%
    04:00 +20°C° 0 mm 0 mps 740 mmHg 95%
    05:00 +20°C° 0 mm 0 mps 741 mmHg 97%
    06:00 +21°C° 0 mm 0 mps 741 mmHg 89%
    07:00 +23°C° 0 mm 0 mps 742 mmHg 82%
    08:00 +25°C° 0 mm 0 mps 742 mmHg 74%
    09:00 +28°C° 0 mm 0 mps 742 mmHg 61%
    10:00 +32°C° 0 mm 0 mps 742 mmHg 47%
    11:00 +35°C° 0 mm 0 mps 742 mmHg 33%
    12:00 +36°C° 0 mm 0 mps 741 mmHg 29%
    13:00 +39°C° 0 mm 1 mps 740 mmHg 25%
    14:00 +40°C° 0 mm 1 mps 739 mmHg 21%
    15:00 +37°C° 0 mm 1 mps 739 mmHg 23%
    16:00 +36°C° 0 mm 1 mps 739 mmHg 25%
    17:00 +35°C° 0 mm 1 mps 739 mmHg 27%
    18:00 +30°C° 0 mm 0 mps 739 mmHg 31%
    19:00 +28°C° 0 mm 0 mps 740 mmHg 36%
    20:00 +25°C° 0 mm 0 mps 740 mmHg 40%
    21:00 +24°C° 0 mm 0 mps 741 mmHg 50%
    22:00 +25°C° 0 mm 1 mps 741 mmHg 60%
    23:00 +24°C° 0 mm 1 mps 741 mmHg 69%

    Day after tomorrow, 21 January, Sunday

    Time Temperature Precipitation Wind Pressure Humidity
    00:00 +24°C° 0 mm 1 mps 741 mmHg 78%
    01:00 +21°C° 0 mm 0 mps 741 mmHg 86%
    02:00 +20°C° 0 mm 0 mps 740 mmHg 95%
    03:00 +20°C° 0 mm 0 mps 740 mmHg 96%
    04:00 +20°C° 0 mm 0 mps 741 mmHg 97%
    05:00 +20°C° 0 mm 0 mps 741 mmHg 98%
    06:00 +22°C° 0 mm 0 mps 741 mmHg 90%
    07:00 +23°C° 0 mm 0 mps 742 mmHg 83%
    08:00 +25°C° 0 mm 0 mps 742 mmHg 76%
    09:00 +28°C° 0 mm 0 mps 742 mmHg 61%
    10:00 +33°C° 0 mm 1 mps 742 mmHg 46%
    11:00 +36°C° 0 mm 1 mps 742 mmHg 31%
    12:00 +37°C° 0 mm 1 mps 741 mmHg 26%
    13:00 +39°C° 0 mm 1 mps 740 mmHg 22%
    14:00 +40°C° 0 mm 1 mps 739 mmHg 17%
    15:00 +37°C° 0 mm 1 mps 739 mmHg 19%
    16:00 +36°C° 0 mm 1 mps 738 mmHg 21%
    17:00 +33°C° 0 mm 0 mps 738 mmHg 22%
    18:00 +32°C° 0 mm 1 mps 739 mmHg 26%
    19:00 +30°C° 0 mm 1 mps 740 mmHg 30%
    20:00 +27°C° 0 mm 1 mps 740 mmHg 34%
    21:00 +26°C° 0 mm 1 mps 740 mmHg 46%
    22:00 +25°C° 0 mm 1 mps 741 mmHg 58%
    23:00 +24°C° 0 mm 1 mps 741 mmHg 70%

    22 January, Monday

    Time Temperature Precipitation Wind Pressure Humidity
    00:00 +24°C° 0 mm 1 mps 740 mmHg 78%
    01:00 +21°C° 0 mm 0 mps 740 mmHg 86%
    02:00 +21°C° 0 mm 0 mps 740 mmHg 94%
    03:00 +21°C° 0 mm 0 mps 740 mmHg 94%
    04:00 +21°C° 0 mm 0 mps 740 mmHg 95%
    05:00 +21°C° 0 mm 0 mps 740 mmHg 95%
    06:00 +22°C° 0 mm 0 mps 741 mmHg 88%
    07:00 +23°C° 0 mm 0 mps 741 mmHg 81%
    08:00 +24°C° 0 mm 0 mps 742 mmHg 74%
    09:00 +29°C° 0 mm 1 mps 741 mmHg 58%
    10:00 +32°C° 0 mm 1 mps 741 mmHg 43%
    11:00 +36°C° 0 mm 2 mps 741 mmHg 27%
    12:00 +37°C° 0 mm 2 mps 740 mmHg 22%
    13:00 +39°C° 0 mm 1 mps 739 mmHg 16%
    14:00 +40°C° 0 mm 1 mps 738 mmHg 11%
    15:00 +39°C° 0 mm 1 mps 738 mmHg 13%
    16:00 +36°C° 0 mm 1 mps 738 mmHg 15%
    17:00 +33°C° 0 mm 0 mps 738 mmHg 16%
    18:00 +30°C° 0 mm 0 mps 738 mmHg 19%
    19:00 +29°C° 0 mm 1 mps 739 mmHg 22%
    20:00 +27°C° 0 mm 1 mps 740 mmHg 24%
    21:00 +26°C° 0 mm 1 mps 740 mmHg 35%
    22:00 +25°C° 0 mm 1 mps 740 mmHg 46%
    23:00 +23°C° 0 mm 1 mps 740 mmHg 56%

    23 January, Tuesday

    Time Temperature Precipitation Wind Pressure Humidity
    00:00 +24°C° 0 mm 1 mps 740 mmHg 65%
    01:00 +24°C° 0 mm 1 mps 740 mmHg 75%
    02:00 +22°C° 0 mm 0 mps 739 mmHg 84%
    03:00 +22°C° 0 mm 0 mps 740 mmHg 86%
    04:00 +22°C° 0 mm 0 mps 740 mmHg 89%
    05:00 +21°C° 0 mm 0 mps 740 mmHg 91%
    06:00 +23°C° 0 mm 0 mps 740 mmHg 86%
    07:00 +24°C° 0 mm 0 mps 741 mmHg 80%
    08:00 +25°C° 0 mm 0 mps 741 mmHg 75%
    09:00 +28°C° 0 mm 0 mps 741 mmHg 61%
    10:00 +32°C° 0 mm 0 mps 741 mmHg 46%
    11:00 +35°C° 0 mm 0 mps 741 mmHg 31%
    12:00 +36°C° 0 mm 0 mps 740 mmHg 27%
    13:00 +37°C° 0 mm 0 mps 739 mmHg 23%
    14:00 +40°C° 0 mm 1 mps 738 mmHg 19%
    15:00 +39°C° 0 mm 1 mps 738 mmHg 21%
    16:00 +34°C° 0 mm 0 mps 738 mmHg 23%
    17:00 +33°C° 0 mm 0 mps 738 mmHg 25%
    18:00 +30°C° 0 mm 0 mps 738 mmHg 29%
    19:00 +28°C° 0 mm 0 mps 739 mmHg 33%
    20:00 +25°C° 0 mm 0 mps 740 mmHg 37%
    21:00 +26°C° 0 mm 1 mps 740 mmHg 48%
    22:00 +25°C° 0 mm 1 mps 740 mmHg 58%
    23:00 +24°C° 0 mm 1 mps 740 mmHg 68%

    24 January, Wednesday

    Time Temperature Precipitation Wind Pressure Humidity
    00:00 +24°C° 0 mm 1 mps 740 mmHg 77%
    01:00 +21°C° 0 mm 0 mps 739 mmHg 85%
    02:00 +21°C° 0 mm 0 mps 739 mmHg 93%
    03:00 +20°C° 0 mm 0 mps 739 mmHg 95%
    04:00 +20°C° 0 mm 0 mps 740 mmHg 97%
    05:00 +20°C° 0 mm 0 mps 740 mmHg 98%
    06:00 +22°C° 0 mm 0 mps 740 mmHg 90%
    07:00 +23°C° 0 mm 0 mps 741 mmHg 83%
    08:00 +25°C° 0 mm 0 mps 741 mmHg 75%
    09:00 +28°C° 0 mm 0 mps 741 mmHg 62%
    10:00 +32°C° 0 mm 0 mps 741 mmHg 49%
    11:00 +35°C° 0 mm 0 mps 740 mmHg 36%
    12:00 +36°C° 0 mm 0 mps 740 mmHg 31%
    13:00 +40°C° 0 mm 1 mps 739 mmHg 27%
    14:00 +41°C° 0 mm 1 mps 738 mmHg 22%
    15:00 +39°C° 0 mm 1 mps 738 mmHg 24%
    16:00 +37°C° 0 mm 1 mps 738 mmHg 27%
    17:00 +35°C° 0 mm 1 mps 738 mmHg 29%
    18:00 +33°C° 0 mm 1 mps 738 mmHg 35%
    19:00 +31°C° 0 mm 1 mps 739 mmHg 41%
    20:00 +28°C° 0 mm 1 mps 739 mmHg 46%
    21:00 +27°C° 0 mm 1 mps 740 mmHg 57%
    22:00 +26°C° 0 mm 1 mps 740 mmHg 68%
    23:00 +25°C° 0 mm 1 mps 740 mmHg 79%
    Show more